DELTA 1 DEB, 2775

Orbit data source: Space-Track

DELTA 1 DEB, 2775 is space debris in SSO originally from a launch on Sun, 02 Oct 1966 UTC launched from the Air Force Western Test Range (AFWTR). Debris objects in space refer to the collection of defunct objects orbiting the Earth. Examples of debris include non-operational satellites, rocket bodies, and fragments generated from explosions, collisions, or faulty payload assembly.

Loading next visibility...
Identifier
2775, 1966-087D
Orbit
SSO
Country
Flag of USUS
Related business
Manufacturer
Unknown
Mission
Spacecraft
Bus & Motor
Unknown
Mass
1 kg wet, 1 kg dry
Launch date (UTC)
1966-10-02 (60 years ago)
Launch vehicle
Unknown
Launch site
Air Force Western Test Range (AFWTR)
Object type
Payload
Rocket body
Debris
Shape & HBR
DISK + CABLE, 1.1 m
Radar Cross Section
Medium (>0.1 m² and <1 m²)

Expand to show TLE details & history
Last TLE update: 1 day ago

TLE from 1 day ago
0 DELTA 1 DEB
1  2775U 66087D   26262.97121454 -.00000024  00000-0  91450-4 0  9999
2  2775 100.9283 262.7332 0124382 288.4672  97.2245 12.71701521782382
Epoch: 2026-09-19T23:18Z
TLE epoch observation values (Epoch: 2026-09-19T23:18:32.936Z)
Latitude
26.60745°
Longitude
-91.29888°
Altitude
1,391.323 km
Speed
7.16 km/s
True Right ascension
17h 08m 50s
True Declination
26° 28' 52"
Sunlit
Object was in daylight at epoch
Visualization orbit readout
Latitude
Unknown
Longitude
Unknown
Altitude
Unknown
Speed
Unknown
Apparent Right ascension
Unknown
Apparent Declination
Unknown
Sunlit
N/A
Visualization observer readout
Local Sidereal Time
01:04:11
Azimuth
Unknown
Elevation
Unknown
Doppler factor
Unknown
Orbital elements
Apogee altitude
1,468.891 km
Perigee altitude
1,276.083 km
Semi-major axis
7,750.624 km
Eccentricity
0.01244
Inclination
100.9283°
RAAN
262.7332°
Arg. of periapsis
288.4672°
True anomaly
98.6356°
Mean anomaly
97.2245°
Eccentric anomaly
97.93034°
Mean motion
3.18081 °/min
Orbital period
113.18 mins
BSTAR
0.00009145
Loading maneuver chart data...
Computing Atmospheric mass density...
Loading historical data...
Loading historical data...
Loading historical data...
Loading historical data...
Loading historical data...
Loading historical data...
Loading historical data...
Other satellites on launch #87 in the year 1966 (1966-10-02 UTC)

Documentation

Showing up to 5 results
|